When you browse on this site, cookies collect data to enhance your experience and personalize the content and advertising you see.
Visit our Privacy Policy to learn more. By continuing to use the site, you agree to this use of cookies and data.
  • In Österreich
  • Länderverzeichnis
  • Für 7 Tage
  • Wassertemperatur
  • Satellitenkarten
  • Wetterkarte
  • News
  • Widgets
  • user-avatar
    Anmelden

    Stündliche Wetter Chinsali

    Heute, 19 Dezember, Mittwoch

    Zeit Temperatur Niederschläge Wind Luftdruck Luftfeuchtigkeit
    00:00 +20°C° 0.8 mm 1 m/S 646 mmHg 93%
    01:00 +20°C° 0.8 mm 1 m/S 646 mmHg 94%
    02:00 +20°C° 0 mm 1 m/S 646 mmHg 95%
    03:00 +20°C° 1.1 mm 1 m/S 646 mmHg 96%
    04:00 +20°C° 1.1 mm 1 m/S 646 mmHg 96%
    05:00 +19°C° 1.1 mm 1 m/S 646 mmHg 96%
    06:00 +20°C° 0.8 mm 1 m/S 647 mmHg 95%
    07:00 +19°C° 0.8 mm 2 m/S 647 mmHg 93%
    08:00 +20°C° 0 mm 2 m/S 648 mmHg 92%
    09:00 +21°C° 0.3 mm 2 m/S 648 mmHg 87%
    10:00 +23°C° 0.3 mm 2 m/S 648 mmHg 81%
    11:00 +24°C° 0.3 mm 2 m/S 648 mmHg 76%
    12:00 +25°C° 0.3 mm 2 m/S 647 mmHg 72%
    13:00 +26°C° 0.3 mm 2 m/S 647 mmHg 69%
    14:00 +26°C° 0.3 mm 2 m/S 646 mmHg 65%
    15:00 +26°C° 0.1 mm 1 m/S 646 mmHg 68%
    16:00 +26°C° 0.1 mm 1 m/S 646 mmHg 72%
    17:00 +25°C° 0.1 mm 1 m/S 645 mmHg 75%
    18:00 +24°C° 0.1 mm 1 m/S 645 mmHg 80%
    19:00 +23°C° 0.1 mm 1 m/S 645 mmHg 85%
    20:00 +19°C° 0.1 mm 0 m/S 645 mmHg 89%
    21:00 +19°C° 0.4 mm 0 m/S 645 mmHg 91%
    22:00 +19°C° 0.4 mm 0 m/S 645 mmHg 92%
    23:00 +18°C° 0.4 mm 0 m/S 646 mmHg 94%

    Morgen, 20 Dezember, Donnerstag

    Zeit Temperatur Niederschläge Wind Luftdruck Luftfeuchtigkeit
    00:00 +20°C° 0.9 mm 1 m/S 645 mmHg 94%
    01:00 +20°C° 0.9 mm 1 m/S 645 mmHg 94%
    02:00 +20°C° 0.9 mm 1 m/S 645 mmHg 95%
    03:00 +20°C° 0.1 mm 1 m/S 645 mmHg 95%
    04:00 +19°C° 0.1 mm 1 m/S 645 mmHg 95%
    05:00 +17°C° 0.1 mm 0 m/S 645 mmHg 95%
    06:00 +20°C° 0.5 mm 1 m/S 645 mmHg 92%
    07:00 +21°C° 0.5 mm 1 m/S 646 mmHg 89%
    08:00 +23°C° 0.5 mm 1 m/S 647 mmHg 86%
    09:00 +23°C° 1.4 mm 2 m/S 647 mmHg 84%
    10:00 +24°C° 1.4 mm 2 m/S 646 mmHg 82%
    11:00 +25°C° 1.4 mm 3 m/S 646 mmHg 80%
    12:00 +25°C° 1.6 mm 3 m/S 646 mmHg 80%
    13:00 +25°C° 1.6 mm 3 m/S 646 mmHg 80%
    14:00 +25°C° 1.6 mm 3 m/S 645 mmHg 80%
    15:00 +24°C° 1.8 mm 2 m/S 645 mmHg 84%
    16:00 +24°C° 1.8 mm 2 m/S 645 mmHg 87%
    17:00 +23°C° 1.8 mm 1 m/S 644 mmHg 91%
    18:00 +22°C° 2.1 mm 1 m/S 645 mmHg 92%
    19:00 +22°C° 2.1 mm 1 m/S 645 mmHg 92%
    20:00 +19°C° 2.1 mm 0 m/S 645 mmHg 93%
    21:00 +19°C° 2.2 mm 0 m/S 646 mmHg 93%
    22:00 +19°C° 2.2 mm 0 m/S 646 mmHg 94%
    23:00 +20°C° 2.2 mm 1 m/S 646 mmHg 94%

    übermorgen, 21 Dezember, Freitag

    Zeit Temperatur Niederschläge Wind Luftdruck Luftfeuchtigkeit
    00:00 +20°C° 2.3 mm 1 m/S 646 mmHg 94%
    01:00 +20°C° 2.3 mm 1 m/S 645 mmHg 95%
    02:00 +20°C° 2.3 mm 1 m/S 645 mmHg 95%
    03:00 +20°C° 1.4 mm 1 m/S 645 mmHg 95%
    04:00 +20°C° 1.4 mm 1 m/S 645 mmHg 95%
    05:00 +20°C° 1.4 mm 1 m/S 645 mmHg 96%
    06:00 +20°C° 0.9 mm 1 m/S 646 mmHg 95%
    07:00 +19°C° 0.9 mm 2 m/S 646 mmHg 95%
    08:00 +19°C° 0.9 mm 2 m/S 647 mmHg 94%
    09:00 +19°C° 1.1 mm 2 m/S 647 mmHg 94%
    10:00 +20°C° 1.1 mm 2 m/S 647 mmHg 93%
    11:00 +20°C° 1.1 mm 2 m/S 647 mmHg 92%
    12:00 +20°C° 1.3 mm 2 m/S 646 mmHg 92%
    13:00 +20°C° 1.3 mm 2 m/S 645 mmHg 92%
    14:00 +20°C° 1.3 mm 2 m/S 645 mmHg 92%
    15:00 +19°C° 1.9 mm 2 m/S 645 mmHg 94%
    16:00 +19°C° 1.9 mm 2 m/S 644 mmHg 95%
    17:00 +20°C° 1.9 mm 1 m/S 644 mmHg 96%
    18:00 +18°C° 4.1 mm 2 m/S 645 mmHg 96%
    19:00 +18°C° 4.1 mm 2 m/S 645 mmHg 96%
    20:00 +18°C° 4.1 mm 3 m/S 646 mmHg 96%
    21:00 +18°C° 2.9 mm 2 m/S 646 mmHg 96%
    22:00 +17°C° 2.9 mm 2 m/S 646 mmHg 96%
    23:00 +17°C° 2.9 mm 2 m/S 646 mmHg 96%

    22 Dezember, Samstag

    Zeit Temperatur Niederschläge Wind Luftdruck Luftfeuchtigkeit
    00:00 +17°C° 3.3 mm 2 m/S 646 mmHg 97%
    01:00 +17°C° 3.3 mm 2 m/S 645 mmHg 97%
    02:00 +17°C° 3.3 mm 2 m/S 645 mmHg 97%
    03:00 +17°C° 2.2 mm 2 m/S 645 mmHg 97%
    04:00 +17°C° 2.2 mm 2 m/S 645 mmHg 97%
    05:00 +18°C° 2.2 mm 1 m/S 645 mmHg 97%
    06:00 +18°C° 1.1 mm 1 m/S 646 mmHg 97%
    07:00 +18°C° 1.1 mm 1 m/S 646 mmHg 96%
    08:00 +19°C° 1.1 mm 1 m/S 647 mmHg 96%
    09:00 +19°C° 0.8 mm 1 m/S 647 mmHg 94%
    10:00 +20°C° 0.8 mm 1 m/S 647 mmHg 93%
    11:00 +19°C° 0.8 mm 2 m/S 647 mmHg 92%
    12:00 +21°C° 0.6 mm 1 m/S 646 mmHg 90%
    13:00 +21°C° 0.6 mm 1 m/S 645 mmHg 89%
    14:00 +22°C° 0.6 mm 1 m/S 645 mmHg 88%
    15:00 +21°C° 0.8 mm 1 m/S 645 mmHg 90%
    16:00 +21°C° 0.8 mm 1 m/S 644 mmHg 92%
    17:00 +19°C° 0.8 mm 0 m/S 644 mmHg 93%
    18:00 +19°C° 0.9 mm 0 m/S 645 mmHg 94%
    19:00 +18°C° 0.9 mm 0 m/S 645 mmHg 94%
    20:00 +17°C° 0.9 mm 0 m/S 645 mmHg 95%
    21:00 +17°C° 1.5 mm 0 m/S 645 mmHg 95%
    22:00 +17°C° 1.5 mm 0 m/S 646 mmHg 96%
    23:00 +19°C° 1.5 mm 1 m/S 646 mmHg 96%

    23 Dezember, Sonntag

    Zeit Temperatur Niederschläge Wind Luftdruck Luftfeuchtigkeit
    00:00 +19°C° 2.6 mm 1 m/S 645 mmHg 97%
    01:00 +19°C° 2.6 mm 1 m/S 645 mmHg 97%
    02:00 +19°C° 2.6 mm 1 m/S 644 mmHg 97%
    03:00 +19°C° 1.1 mm 1 m/S 644 mmHg 97%
    04:00 +19°C° 1.1 mm 1 m/S 645 mmHg 97%
    05:00 +19°C° 1.1 mm 1 m/S 645 mmHg 97%
    06:00 +19°C° 1 mm 1 m/S 645 mmHg 96%
    07:00 +19°C° 1 mm 1 m/S 646 mmHg 95%
    08:00 +20°C° 1 mm 1 m/S 646 mmHg 94%
    09:00 +20°C° 1.2 mm 1 m/S 646 mmHg 92%
    10:00 +21°C° 1.2 mm 1 m/S 646 mmHg 90%
    11:00 +21°C° 1.2 mm 1 m/S 646 mmHg 89%
    12:00 +21°C° 0.9 mm 2 m/S 646 mmHg 88%
    13:00 +21°C° 0.9 mm 2 m/S 645 mmHg 87%
    14:00 +21°C° 0.9 mm 2 m/S 645 mmHg 86%
    15:00 +21°C° 0.6 mm 2 m/S 645 mmHg 87%
    16:00 +22°C° 0.6 mm 1 m/S 645 mmHg 88%
    17:00 +22°C° 0.6 mm 1 m/S 645 mmHg 89%
    18:00 +21°C° 0.2 mm 1 m/S 645 mmHg 91%
    19:00 +20°C° 0.2 mm 1 m/S 645 mmHg 93%
    20:00 +18°C° 0.2 mm 0 m/S 645 mmHg 95%
    21:00 +17°C° 0.2 mm 0 m/S 645 mmHg 95%
    22:00 +17°C° 0.2 mm 0 m/S 645 mmHg 95%
    23:00 +19°C° 0.2 mm 1 m/S 645 mmHg 95%

    24 Dezember, Montag

    Zeit Temperatur Niederschläge Wind Luftdruck Luftfeuchtigkeit
    00:00 +19°C° 0 mm 1 m/S 645 mmHg 96%
    01:00 +19°C° 0 mm 1 m/S 645 mmHg 96%
    02:00 +18°C° 0 mm 1 m/S 644 mmHg 96%
    03:00 +18°C° 0 mm 1 m/S 644 mmHg 96%
    04:00 +18°C° 0 mm 1 m/S 645 mmHg 96%
    05:00 +18°C° 0 mm 1 m/S 645 mmHg 96%
    06:00 +19°C° 0.1 mm 1 m/S 645 mmHg 95%
    07:00 +20°C° 0.1 mm 1 m/S 646 mmHg 93%
    08:00 +20°C° 0.1 mm 1 m/S 646 mmHg 91%
    09:00 +22°C° 0.2 mm 1 m/S 647 mmHg 86%
    10:00 +23°C° 0.2 mm 2 m/S 647 mmHg 81%
    11:00 +24°C° 0.2 mm 2 m/S 647 mmHg 75%
    12:00 +25°C° 1.3 mm 2 m/S 646 mmHg 77%
    13:00 +25°C° 1.3 mm 2 m/S 645 mmHg 79%
    14:00 +25°C° 1.3 mm 2 m/S 644 mmHg 81%
    15:00 +24°C° 1.9 mm 2 m/S 644 mmHg 83%
    16:00 +24°C° 1.9 mm 1 m/S 644 mmHg 86%
    17:00 +23°C° 1.9 mm 1 m/S 644 mmHg 88%
    18:00 +22°C° 2.6 mm 1 m/S 644 mmHg 90%
    19:00 +22°C° 2.6 mm 1 m/S 644 mmHg 92%
    20:00 +21°C° 2.6 mm 1 m/S 645 mmHg 93%
    21:00 +21°C° 1.8 mm 1 m/S 645 mmHg 94%
    22:00 +20°C° 1.8 mm 1 m/S 645 mmHg 95%
    23:00 +20°C° 1.8 mm 1 m/S 645 mmHg 95%
    Mehr zeigen